Syracuse, NY

11:51 PM EST on February 22, 2017 (GMT -0500)
Syracuse Hancock International

Weather History for KSYR - December, 2013

Change the Weather History Date:

Sunday, December 29, 2013

  Actual Average Record
Temperature  
Mean Temperature 35 °F 25 °F  
Max Temperature 43 °F 33 °F 65 °F (1984)
Min Temperature 27 °F 18 °F -24 °F (1933)
Degree Days  
Heating Degree Days 30 40  
Month to date heating degree days 1057 1024  
Since 1 July heating degree days 2390 2373  
Cooling Degree Days 0 0  
Month to date cooling degree days 0 0  
Year to date cooling degree days 712 569  
Moisture  
Dew Point 32 °F    
Average Humidity 82    
Maximum Humidity 100    
Minimum Humidity 64    
Precipitation  
Precipitation 0.40 in 0.10 in 1.23 in (1915)
Month to date precipitation 2.87 3.04  
Year to date precipitation 40.40 38.29  
Snow  
Snow 0.00 in 1.10 in 5.70 in (1987)
Month to date snowfall 27.0 30.5  
Since 1 July snowfall 41.3 40.4  
Snow Depth 2.00 in    
Sea Level Pressure  
Sea Level Pressure 29.76 in    
Wind  
Wind Speed 4 mph (SE)    
Max Wind Speed 15 mph    
Max Gust Speed 22 mph    
Visibility 7 miles    
Events Rain    
T = Trace of Precipitation, MM = Missing Value Source: NWS Daily Summary

Daily Weather History Graph

Daily Weather History Graph

Search for Another Location

Airport or City:

Trip Planner

Search our weather history database for the weather conditions in past years. The results will help you decide how hot, cold, wet, or windy it might be!

Date:

Astronomy

Dec. 29, 2013 Rise Set
Actual Time 7:35 AM EST 4:37 PM EST
Civil Twilight 7:03 AM EST 5:10 PM EST
Nautical Twilight 6:27 AM EST 5:45 PM EST
Astronomical Twilight 5:52 AM EST 6:20 PM EST
Moon 4:14 AM EST (12/29) 2:15 PM EST (12/29)
Length of Visible Light 10h 06m
Length of Day
9h 01m
Waning Crescent, 11% of the Moon is Illuminated
Dec 29
Waning Crescent
Jan 1
New
Jan 7
First Quarter
Jan 15
Full
Jan 24
Last Quarter

Hourly Weather History & Observations

Time (EST) Temp. Windchill Dew Point Humidity Pressure Visibility Wind Dir Wind Speed Gust Speed Precip Events Conditions
12:54 AM 28.0 °F 24.2 °F 27.0 °F 96% 29.95 in 5.0 mi ESE 3.5 mph - N/A   Partly Cloudy
1:54 AM 28.0 °F 21.7 °F 26.1 °F 92% 29.95 in 5.0 mi East 5.8 mph - N/A   Partly Cloudy
2:54 AM 28.0 °F 24.2 °F 26.1 °F 92% 29.95 in 5.0 mi East 3.5 mph - N/A   Scattered Clouds
3:54 AM 28.0 °F - 26.1 °F 92% 29.94 in 5.0 mi Calm Calm - N/A   Scattered Clouds
4:54 AM 28.9 °F - 27.0 °F 92% 29.91 in 8.0 mi Calm Calm - N/A   Scattered Clouds
5:54 AM 28.0 °F - 26.1 °F 92% 29.89 in 7.0 mi Calm Calm - N/A   Clear
6:54 AM 28.0 °F - 26.1 °F 92% 29.89 in 8.0 mi Calm Calm - N/A   Mostly Cloudy
7:54 AM 33.1 °F 30.0 °F 28.0 °F 82% 29.89 in 10.0 mi SSE 3.5 mph - N/A   Overcast
8:54 AM 39.9 °F 35.8 °F 28.9 °F 65% 29.85 in 10.0 mi SE 5.8 mph - N/A   Overcast
9:54 AM 37.9 °F 35.5 °F 30.0 °F 73% 29.86 in 10.0 mi East 3.5 mph - N/A   Overcast
10:54 AM 37.0 °F 34.5 °F 30.9 °F 79% 29.84 in 10.0 mi East 3.5 mph - N/A   Overcast
11:54 AM 37.9 °F 34.4 °F 30.0 °F 73% 29.79 in 10.0 mi South 4.6 mph - 0.00 in Rain Light Rain
12:54 PM 37.0 °F 34.5 °F 35.1 °F 93% 29.74 in 8.0 mi NE 3.5 mph - 0.03 in Rain Light Rain
1:54 PM 37.9 °F 35.5 °F 35.1 °F 89% 29.70 in 5.0 mi ESE 3.5 mph - 0.06 in Rain Rain
2:27 PM 37.4 °F - 35.6 °F 93% 29.69 in 4.0 mi Calm Calm - 0.05 in Rain Rain
2:54 PM 37.9 °F - 37.0 °F 97% 29.69 in 3.0 mi Calm Calm - 0.10 in Rain Rain
3:01 PM 37.4 °F - 35.6 °F 93% 29.68 in 3.0 mi Calm Calm - 0.02 in Rain Rain
3:54 PM 37.0 °F 34.5 °F 36.0 °F 96% 29.68 in 3.0 mi SE 3.5 mph - 0.09 in Rain Light Rain
4:24 PM 37.4 °F 32.8 °F 35.6 °F 93% 29.66 in 5.0 mi SSE 5.8 mph - 0.03 in Rain Light Rain
4:54 PM 37.9 °F 32.7 °F 37.0 °F 97% 29.66 in 8.0 mi SE 6.9 mph - 0.05 in Rain Light Rain
5:25 PM 37.4 °F 33.8 °F 35.6 °F 93% 29.64 in 8.0 mi SE 4.6 mph - 0.03 in Rain Light Rain
5:54 PM 36.0 °F 32.1 °F 35.1 °F 97% 29.64 in 10.0 mi SE 4.6 mph - 0.04 in Rain Light Rain
6:54 PM 36.0 °F - 35.1 °F 97% 29.65 in 6.0 mi Calm Calm - 0.02 in Rain Light Rain
7:20 PM 35.6 °F - 35.6 °F 100% 29.65 in 1.8 mi Calm Calm - 0.01 in Rain Light Rain
7:28 PM 35.6 °F 29.9 °F 33.8 °F 93% 29.64 in 3.0 mi SE 6.9 mph - 0.01 in Rain Light Rain
7:54 PM 36.0 °F 33.3 °F 35.1 °F 97% 29.64 in 4.0 mi South 3.5 mph - 0.01 in   Mostly Cloudy
8:47 PM 35.6 °F - 35.6 °F 100% 29.65 in 3.0 mi Calm Calm - 0.00 in Rain Light Rain
8:54 PM 35.1 °F - 35.1 °F 100% 29.65 in 5.0 mi Calm Calm - 0.00 in Rain Light Rain
9:37 PM 35.6 °F - 33.8 °F 93% 29.64 in 7.0 mi Calm Calm - 0.00 in   Mostly Cloudy
9:54 PM 35.1 °F 31.0 °F 34.0 °F 96% 29.66 in 10.0 mi West 4.6 mph - 0.00 in   Mostly Cloudy
10:54 PM 37.9 °F 29.2 °F 34.0 °F 86% 29.68 in 10.0 mi West 15.0 mph 21.9 mph N/A   Mostly Cloudy
11:54 PM 37.9 °F 30.5 °F 33.1 °F 83% 29.68 in 10.0 mi WSW 11.5 mph - N/A   Overcast